CW9825 Weather Reports


Display with metric or nautical units.
time (UTC)temp
F
wind
direction
speed
MPH
gust
MPH
rain 1hr
in
rain 24hr
in
rain mn
in
humidity
%
barometer
mb
20260506204509 43 273 4.0 9.0 0.00 0.00 0.00 53 1015.5
20260506204007 43 287 4.0 10.0 0.00 0.00 0.00 54 1015.5
20260506203508 42 275 3.0 11.0 0.00 0.00 0.00 53 1015.5
20260506203008 43 275 6.0 11.0 0.00 0.00 0.00 54 1015.6
20260506202508 43 261 3.0 11.0 0.00 0.00 0.00 53 1015.6
20260506202008 43 280 5.0 11.0 0.00 0.00 0.00 52 1015.7
20260506201509 43 286 2.0 8.0 0.00 0.00 0.00 52 1015.6
20260506201007 43 251 2.0 8.0 0.00 0.00 0.00 52 1015.7
20260506200507 43 255 3.0 12.0 0.00 0.00 0.00 53 1015.8
20260506200006 43 273 6.0 12.0 0.00 0.00 0.00 54 1015.7
20260506195508 43 284 3.0 9.0 0.00 0.00 0.00 53 1015.7
20260506195005 43 276 4.0 10.0 0.00 0.00 0.00 53 1015.7
20260506194506 43 281 5.0 11.0 0.00 0.00 0.00 53 1015.9
20260506194006 42 292 6.0 11.0 0.00 0.00 0.00 53 1016.0
20260506193505 42 277 2.0 12.0 0.00 0.00 0.00 54 1016.0
20260506193004 42 223 5.0 12.0 0.00 0.00 0.00 54 1016.1
20260506192504 42 274 5.0 10.0 0.00 0.00 0.00 54 1016.1
20260506192006 42 294 3.0 11.0 0.00 0.00 0.00 53 1016.1
20260506191504 42 273 5.0 11.0 0.00 0.00 0.00 53 1016.2
20260506191004 42 292 3.0 7.0 0.00 0.00 0.00 53 1016.1
20260506190503 42 302 3.0 9.0 0.00 0.00 0.00 55 1016.1
20260506190004 42 333 3.0 9.0 0.00 0.00 0.00 54 1016.2
20260506185502 42 282 4.0 9.0 0.00 0.00 0.00 54 1016.3
20260506185003 42 304 4.0 12.0 0.00 0.00 0.00 54 1016.3
20260506184503 42 286 6.0 12.0 0.00 0.00 0.00 53 1016.1
20260506184002 42 271 6.0 11.0 0.00 0.00 0.00 54 1016.2
20260506183503 42 265 4.0 10.0 0.00 0.00 0.00 53 1016.3
20260506183002 42 324 4.0 10.0 0.00 0.00 0.00 53 1016.2
20260506182501 42 355 5.0 11.0 0.00 0.00 0.00 53 1016.3
20260506182001 42 270 4.0 11.0 0.00 0.00 0.00 53 1016.4
20260506181502 42 248 4.0 11.0 0.00 0.00 0.00 53 1016.3
20260506181001 42 248 4.0 10.0 0.00 0.00 0.00 53 1016.3
20260506180501 42 260 4.0 10.0 0.00 0.00 0.00 53 1016.3
20260506180001 42 284 5.0 10.0 0.00 0.00 0.00 54 1016.4
20260506175501 42 281 1.0 11.0 0.00 0.00 0.00 53 1016.4
20260506175001 42 277 4.0 12.0 0.00 0.00 0.00 54 1016.5
20260506174501 42 323 5.0 12.0 0.00 0.00 0.00 54 1016.4
20260506174102 42 290 4.0 9.0 0.00 0.00 0.00 53 1016.5
20260506173600 42 268 3.0 9.0 0.00 0.00 0.00 54 1016.6
20260506173130 42 355 4.0 9.0 0.00 0.00 0.00 54 1016.6
20260506172600 41 299 3.0 9.0 0.00 0.00 0.00 54 1016.5
20260506172104 41 321 3.0 11.0 0.00 0.00 0.00 54 1016.6
20260506171620 41 273 6.0 11.0 0.00 0.00 0.00 54 1016.5
20260506171100 41 301 4.0 10.0 0.00 0.00 0.00 54 1016.7
20260506170559 41 338 2.0 12.0 0.00 0.00 0.00 54 1016.7
20260506170100 41 281 8.0 12.0 0.00 0.00 0.00 53 1016.7
20260506165559 42 279 4.0 12.0 0.00 0.00 0.00 53 1016.7
20260506165059 42 321 3.0 10.0 0.00 0.00 0.00 53 1016.8
20260506164607 42 304 3.0 10.0 0.00 0.00 0.00 53 1016.8
20260506164059 42 339 3.0 10.0 0.00 0.00 0.00 52 1016.8
20260506163558 43 298 2.0 10.0 0.00 0.00 0.00 52 1016.8
20260506163106 43 319 2.0 8.0 0.00 0.00 0.00 53 1016.9
20260506162555 42 336 3.0 11.0 0.00 0.00 0.00 55 1016.8
20260506162055 42 331 6.0 11.0 0.00 0.00 0.00 54 1016.9
20260506161629 41 312 3.0 12.0 0.00 0.00 0.00 54 1016.9
20260506161054 42 334 5.0 12.0 0.00 0.00 0.00 54 1017.0
20260506160553 41 355 5.0 13.0 0.00 0.00 0.00 54 1017.0
20260506160056 41 315 4.0 13.0 0.00 0.00 0.00 54 1017.0
20260506155551 41 277 4.0 13.0 0.00 0.00 0.00 55 1017.0
20260506155050 40 343 5.0 14.0 0.00 0.00 0.00 55 1017.1
20260506154552 40 269 4.0 14.0 0.00 0.00 0.00 56 1017.0
20260506154049 40 292 3.0 13.0 0.00 0.00 0.00 57 1017.0
20260506153546 39 267 3.0 12.0 0.00 0.00 0.00 57 1017.1
20260506153051 39 308 5.0 13.0 0.00 0.00 0.00 57 1017.1
20260506152547 39 246 7.0 13.0 0.00 0.00 0.00 57 1017.1
20260506152047 39 278 7.0 13.0 0.00 0.00 0.00 57 1017.2
20260506151549 39 5 5.0 14.0 0.00 0.00 0.00 57 1017.2
20260506151046 39 273 3.0 10.0 0.00 0.00 0.00 58 1017.2
20260506150548 39 283 3.0 13.0 0.00 0.00 0.00 57 1017.2
20260506150046 39 274 4.0 13.0 0.00 0.00 0.00 58 1017.2
20260506145546 39 268 6.0 10.0 0.00 0.00 0.00 58 1017.2
20260506145046 39 273 3.0 17.0 0.00 0.00 0.00 57 1017.2
20260506144546 39 285 6.0 17.0 0.00 0.00 0.00 57 1017.2
20260506144045 39 269 5.0 13.0 0.00 0.00 0.00 58 1017.2
20260506143545 39 269 5.0 15.0 0.00 0.00 0.00 57 1017.2
20260506143045 40 266 7.0 15.0 0.00 0.00 0.00 57 1017.2
20260506142544 40 294 4.0 11.0 0.00 0.00 0.00 58 1017.2
20260506142042 39 274 7.0 12.0 0.00 0.00 0.00 61 1017.2
20260506141541 39 321 5.0 12.0 0.00 0.00 0.00 60 1017.2
20260506141040 39 321 4.0 12.0 0.00 0.00 0.00 62 1017.2
20260506140542 39 346 4.0 12.0 0.00 0.00 0.00 61 1017.3
20260506140039 38 294 3.0 10.0 0.00 0.00 0.00 62 1017.3
20260506135537 38 335 5.0 12.0 0.00 0.00 0.00 62 1017.3
20260506135036 38 323 7.0 12.0 0.00 0.00 0.00 63 1017.3
20260506134535 37 280 3.0 9.0 0.00 0.00 0.00 63 1017.3
20260506134033 37 272 3.0 9.0 0.00 0.00 0.00 63 1017.3
20260506133532 37 288 3.0 9.0 0.00 0.00 0.00 63 1017.3
20260506133031 37 333 3.0 8.0 0.00 0.00 0.00 65 1017.3
20260506132533 37 310 2.0 8.0 0.00 0.00 0.00 65 1017.3
20260506132034 36 273 2.0 7.0 0.00 0.00 0.00 65 1017.3
20260506131537 36 289 2.0 8.0 0.00 0.00 0.00 65 1017.2
20260506131029 36 270 2.0 8.0 0.00 0.00 0.00 65 1017.2
20260506130527 36 297 3.0 8.0 0.00 0.00 0.00 65 1017.2
20260506130025 36 266 2.0 8.0 0.00 0.00 0.00 65 1017.2
20260506125530 36 330 3.0 10.0 0.00 0.00 0.00 65 1017.2
20260506125026 36 327 1.0 10.0 0.00 0.00 0.00 65 1017.2
20260506124523 36 306 3.0 10.0 0.00 0.00 0.00 66 1017.1
20260506124022 35 301 2.0 5.0 0.00 0.00 0.00 66 1017.1
20260506123520 35 309 2.0 4.0 0.00 0.00 0.00 66 1017.1
20260506123019 35 309 1.0 4.0 0.00 0.00 0.00 66 1017.1
20260506122519 35 317 1.0 4.0 0.00 0.00 0.00 66 1017.1
20260506122018 35 302 2.0 8.0 0.00 0.00 0.00 66 1017.0
20260506121517 35 296 1.0 5.0 0.00 0.00 0.00 66 1016.9
20260506121016 35 300 2.0 4.0 0.00 0.00 0.00 66 1016.9
20260506120515 35 296 1.0 4.0 0.00 0.00 0.00 65 1016.8
20260506120018 35 288 1.0 4.0 0.00 0.00 0.00 65 1016.7
20260506115518 35 284 1.0 4.0 0.00 0.00 0.00 65 1016.7
20260506115013 35 296 1.0 4.0 0.00 0.00 0.00 65 1016.6
20260506114513 35 308 1.0 3.0 0.00 0.00 0.00 65 1016.5
20260506114012 35 310 0.0 3.0 0.00 0.00 0.00 64 1016.6
20260506113511 35 310 1.0 4.0 0.00 0.00 0.00 64 1016.6
20260506113010 35 311 1.0 5.0 0.00 0.00 0.00 64 1016.6
20260506112510 35 315 2.0 5.0 0.00 0.00 0.00 63 1016.5
20260506112009 35 329 2.0 6.0 0.00 0.00 0.00 63 1016.4
20260506111509 35 327 2.0 6.0 0.00 0.00 0.00 63 1016.5
20260506111009 35 338 2.0 8.0 0.00 0.00 0.00 64 1016.4
20260506110510 35 327 3.0 9.0 0.00 0.00 0.00 64 1016.3
20260506110008 35 325 5.0 9.0 0.00 0.00 0.00 64 1016.3
20260506105507 35 340 5.0 10.0 0.00 0.00 0.00 64 1016.3
20260506105009 35 330 6.0 10.0 0.00 0.00 0.00 64 1016.2
20260506104506 35 333 4.0 12.0 0.00 0.00 0.00 65 1016.2
20260506104005 35 338 5.0 12.0 0.00 0.00 0.00 65 1016.2
20260506103505 35 320 3.0 8.0 0.00 0.00 0.00 66 1016.2
20260506103004 35 334 3.0 8.0 0.00 0.00 0.00 66 1016.2
20260506102503 35 304 1.0 8.0 0.00 0.00 0.00 66 1016.2
20260506102002 35 292 3.0 6.0 0.00 0.00 0.00 66 1016.2
20260506101506 35 329 3.0 6.0 0.00 0.00 0.00 66 1016.2
20260506101002 35 37 2.0 7.0 0.00 0.00 0.00 66 1016.1
20260506100502 35 318 2.0 11.0 0.00 0.00 0.00 66 1016.2
20260506100001 35 355 5.0 11.0 0.00 0.00 0.00 65 1016.1
20260506095603 35 320 5.0 11.0 0.00 0.00 0.00 65 1016.2
20260506095103 35 327 5.0 10.0 0.00 0.00 0.00 65 1016.2
20260506094559 35 307 3.0 8.0 0.00 0.00 0.00 65 1016.1
20260506094058 35 322 4.0 10.0 0.00 0.00 0.00 65 1016.1
20260506093557 35 331 5.0 10.0 0.00 0.00 0.00 65 1016.1
20260506093057 35 321 6.0 10.0 0.00 0.00 0.00 65 1016.1
20260506092556 35 321 3.0 6.0 0.00 0.00 0.00 65 1016.1
20260506092056 35 335 2.0 6.0 0.00 0.00 0.00 65 1016.1
20260506091555 35 327 2.0 5.0 0.00 0.00 0.00 65 1016.0
20260506091055 35 340 2.0 6.0 0.00 0.00 0.00 65 1016.0
20260506090555 35 338 3.0 6.0 0.00 0.00 0.00 65 1016.1
20260506090055 35 325 3.0 5.0 0.00 0.00 0.00 65 1016.0
20260506085554 35 326 3.0 6.0 0.00 0.00 0.00 65 1016.0
20260506085054 35 329 3.0 6.0 0.00 0.00 0.00 65 1015.9
20260506084620 35 327 4.0 6.0 0.00 0.00 0.00 65 1016.0
20260506084054 35 321 3.0 7.0 0.00 0.00 0.00 65 1016.0
20260506083553 35 340 2.0 6.0 0.00 0.00 0.00 65 1015.9
20260506083054 35 355 2.0 6.0 0.00 0.00 0.00 65 1015.8
20260506082553 35 355 3.0 6.0 0.00 0.00 0.00 65 1015.8
20260506082051 35 337 4.0 6.0 0.00 0.00 0.00 65 1015.9
20260506081555 35 338 2.0 6.0 0.00 0.00 0.00 65 1015.8
20260506081052 35 323 3.0 6.0 0.00 0.00 0.00 65 1015.9
20260506080553 35 344 1.0 9.0 0.00 0.00 0.00 65 1015.9
20260506073048 35 360 4.0 9.0 0.00 0.00 0.00 64 1015.7
20260506072546 35 355 3.0 8.0 0.00 0.00 0.00 64 1015.8
20260506072046 36 331 4.0 8.0 0.00 0.00 0.00 64 1015.8
20260506071545 36 333 3.0 8.0 0.00 0.00 0.00 64 1015.7
20260506071045 36 326 3.0 9.0 0.00 0.00 0.00 64 1015.8
20260506070545 36 5 3.0 9.0 0.00 0.00 0.00 64 1015.8
20260506062039 36 5 2.0 8.0 0.00 0.00 0.00 64 1015.7
20260506061539 36 37 4.0 9.0 0.00 0.00 0.00 64 1015.7
20260506061038 36 29 2.0 9.0 0.00 0.00 0.00 64 1015.6
20260506060537 36 360 3.0 10.0 0.00 0.00 0.00 64 1015.6
20260506051029 37 13 4.0 11.0 0.00 0.00 0.00 63 1015.4
20260506050528 37 338 6.0 12.0 0.00 0.00 0.00 63 1015.4
20260506045027 38 324 3.0 12.0 0.00 0.00 0.00 61 1015.3
20260506044552 38 355 5.0 12.0 0.00 0.00 0.00 61 1015.2
20260506044026 38 317 7.0 12.0 0.00 0.00 0.00 61 1015.2
20260506043526 38 355 2.0 12.0 0.00 0.00 0.00 61 1015.2
20260506043025 38 350 5.0 13.0 0.00 0.00 0.00 60 1015.1
20260506042525 38 321 8.0 13.0 0.00 0.00 0.00 60 1015.2
20260506042025 38 347 8.0 12.0 0.00 0.00 0.00 60 1015.1
20260506041525 38 346 6.0 12.0 0.00 0.00 0.00 60 1015.1
20260506041030 38 306 5.0 13.0 0.00 0.00 0.00 60 1015.0
20260506040524 38 10 7.0 13.0 0.00 0.00 0.00 59 1015.1
20260506040028 38 329 6.0 14.0 0.00 0.00 0.00 59 1015.1
20260506035526 38 338 5.0 13.0 0.00 0.00 0.00 59 1015.1
20260506035024 38 300 5.0 12.0 0.00 0.00 0.00 59 1015.0
20260506034544 38 12 6.0 13.0 0.00 0.00 0.00 59 1015.0
20260506034024 39 350 8.0 13.0 0.00 0.00 0.00 59 1015.0
20260506033522 39 355 6.0 12.0 0.00 0.00 0.00 59 1015.0
20260506033022 39 287 5.0 13.0 0.00 0.00 0.00 59 1015.1
20260506032522 39 355 8.0 16.0 0.00 0.00 0.00 59 1015.0
20260506032024 39 331 6.0 16.0 0.00 0.00 0.00 59 1015.1
20260506031522 39 303 7.0 16.0 0.00 0.00 0.00 58 1015.0
20260506031022 39 304 7.0 16.0 0.00 0.00 0.00 58 1015.0
20260506030522 39 344 7.0 15.0 0.00 0.00 0.00 58 1015.0
20260506030021 39 329 9.0 15.0 0.00 0.00 0.00 57 1015.0
20260506025522 39 324 8.0 16.0 0.00 0.00 0.00 57 1014.9
20260506025022 39 321 8.0 16.0 0.00 0.00 0.00 57 1014.9
20260506024520 39 351 8.0 15.0 0.00 0.00 0.00 57 1014.9
20260506024020 39 293 8.0 13.0 0.00 0.00 0.00 56 1014.9
20260506023519 39 325 8.0 13.0 0.00 0.00 0.00 56 1014.8
20260506023018 40 337 7.0 13.0 0.00 0.00 0.00 56 1014.7
20260506022518 40 324 9.0 15.0 0.00 0.00 0.00 56 1014.6
20260506022016 40 330 6.0 15.0 0.00 0.00 0.00 56 1014.5
20260506021516 40 324 7.0 14.0 0.00 0.00 0.00 56 1014.5
20260506021016 40 360 7.0 14.0 0.00 0.00 0.00 55 1014.5
20260506020514 40 338 5.0 14.0 0.00 0.00 0.00 56 1014.4
20260506020014 40 326 3.0 17.0 0.00 0.00 0.00 55 1014.2
20260506015513 40 24 7.0 13.0 0.00 0.00 0.00 55 1014.1
20260506015012 40 333 5.0 12.0 0.00 0.00 0.00 55 1014.1
20260506014512 40 343 5.0 14.0 0.00 0.00 0.00 55 1014.1
20260506014011 40 335 8.0 14.0 0.00 0.00 0.00 54 1014.0
20260506013511 40 343 9.0 14.0 0.00 0.00 0.00 54 1014.0
20260506013010 40 340 6.0 14.0 0.00 0.00 0.00 54 1013.9
20260506012510 41 338 7.0 14.0 0.00 0.00 0.00 54 1013.9
20260506012008 41 308 9.0 15.0 0.00 0.00 0.00 54 1013.9
20260506011513 41 330 9.0 15.0 0.00 0.00 0.00 53 1013.7
20260506011012 41 316 7.0 18.0 0.00 0.00 0.00 54 1013.7
20260506010508 41 307 9.0 18.0 0.00 0.00 0.00 53 1013.6
20260506010010 41 345 6.0 12.0 0.00 0.00 0.00 53 1013.6
20260506005508 41 340 7.0 17.0 0.00 0.00 0.00 53 1013.6
20260506005007 41 269 11.0 17.0 0.00 0.00 0.00 53 1013.5
20260506004513 41 329 10.0 15.0 0.00 0.00 0.00 53 1013.5
20260506004007 41 275 8.0 15.0 0.00 0.00 0.00 53 1013.6
20260506003506 41 327 11.0 15.0 0.00 0.00 0.00 52 1013.5
20260506003008 41 321 7.0 15.0 0.00 0.00 0.00 53 1013.5
20260506002508 42 319 9.0 15.0 0.00 0.00 0.00 52 1013.5
20260506002006 42 306 6.0 15.0 0.00 0.00 0.00 52 1013.5
20260506001506 42 327 6.0 16.0 0.00 0.00 0.00 51 1013.6
20260506001006 42 294 9.0 16.0 0.00 0.00 0.00 51 1013.5
20260506000507 42 321 5.0 13.0 0.00 0.00 0.00 52 1013.4
20260506000105 42 326 5.0 13.0 0.00 0.00 0.00 52 1013.5
20260505235505 42 280 7.0 16.0 0.00 0.00 0.00 51 1013.5
20260505235004 42 347 9.0 16.0 0.00 0.00 0.00 51 1013.4
20260505234508 42 336 8.0 15.0 0.00 0.00 0.00 51 1013.4
20260505234004 42 273 8.0 15.0 0.00 0.00 0.00 51 1013.4
20260505233503 42 287 6.0 14.0 0.00 0.00 0.00 51 1013.5
20260505233007 42 319 4.0 14.0 0.00 0.00 0.00 51 1013.3
20260505232502 42 341 8.0 19.0 0.00 0.00 0.00 51 1013.4
20260505232002 42 320 11.0 19.0 0.00 0.00 0.00 51 1013.5
20260505231506 42 360 8.0 15.0 0.00 0.00 0.00 51 1013.5
20260505231001 42 268 6.0 14.0 0.00 0.00 0.00 51 1013.4
20260505230501 42 302 7.0 18.0 0.00 0.00 0.00 51 1013.4
20260505230002 42 301 5.0 18.0 0.00 0.00 0.00 51 1013.3
20260505225502 43 334 7.0 16.0 0.00 0.00 0.00 52 1013.2
20260505225001 42 355 4.0 12.0 0.00 0.00 0.00 52 1013.2
20260505224601 42 348 6.0 14.0 0.00 0.00 0.00 52 1013.2
20260505224100 43 283 5.0 16.0 0.00 0.00 0.00 51 1013.1
20260505223559 43 319 10.0 16.0 0.00 0.00 0.00 50 1013.2
20260505223059 43 329 7.0 16.0 0.00 0.00 0.00 51 1013.1
20260505222559 43 284 9.0 16.0 0.00 0.00 0.00 50 1013.1
20260505222059 43 303 11.0 17.0 0.00 0.00 0.00 52 1013.1
20260505221601 43 344 11.0 17.0 0.00 0.00 0.00 51 1013.1
20260505221058 42 333 10.0 17.0 0.00 0.00 0.00 51 1013.1
20260505220558 42 325 11.0 17.0 0.00 0.00 0.00 51 1013.1
20260505220105 42 326 8.0 16.0 0.00 0.00 0.00 51 1013.0
20260505215558 43 276 7.0 16.0 0.00 0.00 0.00 51 1013.1
20260505215058 43 317 9.0 17.0 0.00 0.00 0.00 51 1013.1
20260505214605 43 331 6.0 17.0 0.00 0.00 0.00 51 1013.1
20260505214058 43 326 8.0 14.0 0.00 0.00 0.00 51 1013.1
20260505213556 43 350 4.0 14.0 0.00 0.00 0.00 51 1013.1
20260505213103 43 328 6.0 17.0 0.00 0.00 0.00 52 1013.1
20260505212557 42 288 7.0 18.0 0.00 0.00 0.00 51 1013.0
20260505212056 43 336 11.0 20.0 0.00 0.00 0.00 51 1013.0
20260505211602 43 338 11.0 20.0 0.00 0.00 0.00 50 1013.1
20260505211100 43 328 9.0 15.0 0.00 0.00 0.00 51 1013.0
20260505210556 43 309 8.0 21.0 0.00 0.00 0.00 51 1013.0
20260505210056 43 302 10.0 22.0 0.00 0.00 0.00 50 1013.0
20260505205556 43 329 9.0 22.0 0.00 0.00 0.00 51 1013.0
20260505205056 43 330 11.0 18.0 0.00 0.00 0.00 50 1012.9